Rbgn^[z[y[W
メイン
   新天体発見情報
     Comet P/2004 A1 = 2022 Q3 (LONEOS)
投稿するにはまず登録を

フラット表示 前のトピック | 次のトピック
投稿者 スレッド
佐藤裕久
投稿日時: 2022-10-12 11:31
モデレータ
登録日: 2005-6-12
居住地: 日本
投稿: 2442
オンライン
Comet P/2004 A1 = 2022 Q3 (LONEOS)

M. Rudenko (小惑星センター)の報告(MPEC 2022-T106)によると、Charles A. Schambeau 
(Florida宇宙研究所, Central Florida大学)らは、8月21日、23日UT、Maunakea にある
Gemini北天文台の8.1-m望遠鏡で得たCCD画像からP/2004 A1 (IAUC 8267を参照)を検出した
(測定はM. Micheli)。恒星状で、光度は24.9等〜24.5等であった。
NK 1707の中野主一氏の予報に対する修正値は、Delta(T) = +0.12 dayであった。
MPC 82312のG. V. Williamsの予報に対する修正値は、Delta(T) = +0.67 dayであった。

検出位置は次のとおり、

     2022 UT             R.A. (2000) Decl.       Mag.   Observer
     Aug. 21.52078    3 10 17.08   + 6 27 13.1   24.9   Schambeau
          21.52978    3 10 17.12   + 6 27 12.5   24.7     "
          21.53877    3 10 17.17   + 6 27 11.7   24.7     "
          23.54592    3 10 27.98   + 6 25 13.4   24.6     "
          23.56140    3 10 28.05   + 6 25 12.3   24.5     "

MPCの連結軌道要素と位置推算表は次のとおり、

Orbital elements:
    P/2004 A1 (LONEOS)                                                          
Epoch 2022 Aug. 9.0 TT = JDT 2459800.5                                          
T 2027 Jan. 18.46041 TT                                 Rudenko                 
q   5.4999153            (2000.0)            P               Q                  
n   0.04380541     Peri.   21.11589     -0.82377835     -0.54663442             
a   7.9698639      Node   124.85744     +0.49035603     -0.82006758             
e   0.3099110      Incl.   10.55173     +0.28449989     -0.16935163             
P  22.5                                                                         
From 555 observations 2003 Oct. 25-2022 Aug. 23, mean residual 1".0.            
                                                                                
Ephemeris:
Date    TT    R. A. (2000) Decl.     Delta      r    Elong.  Phase   m1
2022 09 08    03 10 45.8 +06 05 37   7.3481  7.8640   117.5     6.5  19.8
...
2022 09 23    03 09 12.5 +05 40 27   7.1269  7.8353   132.1     5.5  19.7
...
2022 10 01    03 07 40.1 +05 25 18   7.0262  7.8199   140.0     4.7  19.7
...
2022 10 07    03 06 13.3 +05 13 31   6.9603  7.8084   145.9     4.1  19.6
2022 10 08    03 05 57.5 +05 11 32   6.9502  7.8065   146.9     4.0  19.6
2022 10 09    03 05 41.4 +05 09 33   6.9403  7.8045   147.9     3.9  19.6
...
2022 10 15    03 03 57.2 +04 57 38   6.8865  7.7930   153.7     3.3  19.6
...
2022 10 23    03 01 21.7 +04 42 03   6.8304  7.7775   160.9     2.4  19.6
...
2022 11 07    02 55 57.7 +04 15 39   6.7765  7.7485   168.0     1.5  19.5

(MPEC 2022-T106、CBET 5178、oaa-comet 3841)

フラット表示 前のトピック | 次のトピック

題名 投稿者 日時
 » Comet P/2004 A1 = 2022 Q3 (LONEOS) 佐藤裕久 2022-10-12 11:31

投稿するにはまず登録を
 
© 1999 Tsutomu Seki.